RH
7 8 8 10 10 10 10 9 9 8 6 6 6 6 7 7 8 9 8 8 8 9 10 10 10 10 9 10 10 10 8 7 7 7 7 8 8 8 7 6 5 5 6 6 5 4 3 3 3 3 2 2 2 1 2 1 1 1 1 1 1 1 1
6 6 7 8 8 8 8 8 8 8 7 6 6 5 6 7 7 8 8 8 8 8 9 9 10 10 10 11 11 10 8 7 7 7 7 8 9 8 7 6 5 5 5 5 5 4 4 3 3 3 2 2 2 2 1 1 2 1 1 1 1 1 2
5 5 5 6 6 7 7 7 7 8 7 7 6 5 6 7 7 7 7 7 7 8 8 9 10 11 11 11 12 10 8 7 7 7 8 9 9 8 7 5 5 5 5 5 5 5 4 4 3 2 2 2 2 2 2 1 2 1 1 1 1 2 1
3 4 4 4 5 5 6 7 7 7 7 7 6 5 5 6 6 6 7 6 7 7 8 9 10 11 12 13 13 11 8 7 7 8 9 9 9 8 6 5 5 5 4 4 5 5 4 4 3 2 2 2 2 2 2 2 2 1 1 1 1 1 1
3 3 3 3 4 4 5 6 6 6 6 6 6 6 5 6 6 6 6 6 7 7 7 9 10 11 13 14 13 11 8 7 8 9 10 9 9 7 6 5 5 4 4 4 5 5 5 4 3 3 2 2 2 2 2 2 2 1 1 1 1 1 1
3 3 3 3 3 4 4 5 5 6 6 6 6 6 5 5 6 6 6 6 7 7 7 8 10 12 14 15 14 10 8 8 9 10 10 10 9 7 6 6 5 4 4 4 5 4 4 4 3 3 3 2 2 2 2 2 2 1 2 1 1 1 1
2 2 3 3 3 3 4 4 5 5 5 5 5 5 5 5 6 6 6 6 6 6 6 7 10 12 14 16 14 10 8 9 10 11 11 10 9 7 6 6 5 5 4 4 5 4 4 4 3 3 3 3 2 2 2 2 2 2 1 1 1 1 1
2 2 2 3 3 3 3 4 4 4 4 5 5 5 5 5 5 6 6 6 6 6 6 7 10 13 16 16 14 10 9 10 11 11 11 10 8 6 6 6 5 5 4 4 5 4 3 4 4 3 3 3 2 2 2 2 2 2 1 1 1 1 1
2 2 2 2 2 3 3 4 4 4 4 4 4 5 5 5 5 6 6 7 6 6 6 7 10 14 16 15 12 10 10 11 12 12 11 9 7 6 6 6 5 5 5 5 4 4 3 3 4 3 3 3 2 2 2 2 2 2 1 1 1 1 1
2 2 2 2 2 2 3 3 4 4 3 4 4 5 5 5 5 5 6 7 6 6 6 7 12 15 15 13 11 10 11 12 12 12 11 9 7 6 6 5 5 5 5 5 4 3 3 3 4 3 2 3 2 2 2 2 2 2 1 1 1 1 1
2 2 2 2 2 2 2 3 3 3 3 4 4 4 4 4 5 5 6 6 6 6 6 9 14 15 13 11 11 11 11 12 12 11 10 8 6 6 6 5 5 6 5 5 4 3 3 3 4 3 2 3 2 2 2 2 2 2 1 1 1 1 1
2 2 2 2 2 2 2 3 3 3 3 3 3 4 4 4 4 5 6 6 6 6 7 11 15 13 11 11 11 11 12 12 12 11 9 7 6 6 6 5 6 7 6 5 5 4 4 4 4 3 2 3 3 2 2 2 2 2 1 1 1 1 1
2 2 2 2 2 2 2 2 3 3 3 3 3 4 4 4 4 5 6 6 5 6 9 12 13 11 10 11 11 12 13 12 11 10 8 7 6 6 5 5 6 6 6 5 5 6 5 4 4 4 3 3 3 2 2 2 2 2 1 1 1 1 1
2 2 2 2 2 2 2 2 2 2 2 2 3 3 3 4 4 5 5 5 5 8 10 11 10 10 10 11 11 12 13 12 11 9 7 6 6 6 5 5 6 6 5 5 6 6 6 5 4 4 3 3 3 3 3 2 2 2 1 1 1 1 1
2 1 2 2 2 2 2 2 2 2 2 2 3 3 3 4 4 5 5 5 7 9 10 10 10 11 10 10 11 12 12 12 11 8 6 6 6 5 5 5 6 6 5 5 6 6 6 5 4 4 3 3 3 3 3 2 2 2 1 1 1 1 1
2 2 2 1 2 2 2 2 2 2 2 3 3 3 4 4 4 5 4 6 7 8 9 10 10 10 10 10 11 11 12 12 10 7 7 7 6 5 5 5 6 6 5 6 6 6 6 5 4 3 3 3 3 3 3 2 2 2 1 1 1 1 1
1 1 2 2 2 2 2 1 2 2 2 3 3 3 4 4 4 5 4 6 7 8 9 10 10 9 9 10 11 12 13 11 9 7 7 6 5 5 5 5 6 5 5 6 7 7 6 5 4 4 3 3 3 3 2 2 2 1 1 2 1 1 1
2 1 1 2 1 1 2 1 2 2 2 2 3 3 4 4 4 5 5 5 7 8 9 10 9 8 9 10 11 13 12 10 8 7 7 6 5 5 5 5 5 5 5 6 6 6 5 5 4 4 4 3 3 3 2 2 2 1 1 2 1 1 1
2 2 1 2 1 1 2 2 2 3 2 2 3 3 4 4 4 5 5 5 7 8 9 9 8 8 9 10 12 12 10 8 7 8 7 6 6 5 5 5 5 5 5 5 6 6 5 4 4 4 4 4 3 3 2 1 2 2 1 2 1 1 1
2 2 1 2 2 1 2 2 2 3 3 3 3 4 4 4 4 5 5 5 7 8 8 8 8 8 10 11 12 11 9 7 8 8 7 6 6 6 5 5 5 5 6 5 5 5 4 4 4 4 4 4 3 3 2 1 2 2 1 2 1 1 1
1 2 2 1 2 2 2 2 3 3 3 3 3 4 4 4 4 5 5 6 7 8 8 8 8 9 11 12 11 9 7 7 8 8 7 6 6 6 6 5 5 5 6 6 6 5 4 4 4 4 4 4 3 3 2 2 2 2 1 2 1 1 1
1 1 2 2 2 2 2 2 3 3 3 3 3 3 4 4 4 5 5 6 7 8 8 8 8 10 12 12 10 8 7 8 8 7 7 6 6 6 5 5 6 6 7 7 6 6 5 4 4 4 4 4 4 3 2 2 2 2 1 2 1 1 2
2 1 2 2 2 2 2 2 3 3 3 3 3 3 4 4 4 5 5 7 7 7 8 8 9 11 12 11 9 8 7 8 7 7 7 6 6 6 5 6 7 8 8 8 7 6 5 4 4 3 3 4 4 3 2 2 2 2 1 2 2 1 1
2 2 2 2 2 2 2 2 3 3 3 3 3 4 4 4 4 5 6 6 7 7 8 9 11 12 11 9 8 7 8 8 7 7 7 7 6 6 6 7 9 9 9 9 7 6 5 4 4 3 3 4 4 3 3 2 2 2 2 2 2 1 1
2 2 2 2 2 2 2 3 3 3 3 3 3 4 4 4 5 5 5 6 7 7 9 10 12 12 10 8 8 8 8 7 7 7 7 7 6 6 7 9 10 10 10 9 6 6 5 4 4 4 4 4 4 3 3 2 2 2 2 2 2 1 2
2 2 2 2 2 3 3 3 3 3 3 3 4 4 4 4 5 5 6 7 8 9 10 11 12 10 9 8 8 8 8 7 7 7 7 7 6 7 9 11 12 11 10 8 6 5 5 4 5 4 4 4 4 4 3 2 2 2 1 2 2 1 2
2 2 2 2 3 3 3 3 3 3 3 4 4 4 4 5 5 5 7 8 9 11 11 11 11 9 8 8 8 7 7 7 7 7 7 6 7 8 11 12 12 11 10 7 6 6 5 5 5 5 5 5 4 3 3 2 2 2 2 2 2 1 2
2 2 2 3 3 3 3 3 3 4 4 4 4 4 4 5 6 7 8 9 11 11 10 10 9 8 8 8 7 7 7 7 8 7 7 6 8 11 13 13 12 11 9 7 6 6 5 6 5 4 5 4 4 3 2 2 2 2 2 2 1 1 2
2 2 2 3 3 3 3 3 4 4 4 4 4 5 5 6 7 8 9 10 11 10 9 8 7 7 8 8 7 8 8 8 8 7 6 8 11 13 14 13 12 10 8 7 7 6 6 6 6 5 5 4 4 3 2 2 2 2 2 2 1 1 2
2 2 3 3 3 3 3 3 4 4 4 5 5 6 7 7 8 9 10 10 10 9 7 7 7 7 7 7 8 8 8 8 8 7 8 11 14 14 14 13 11 10 8 7 7 6 6 7 6 5 5 4 4 4 3 2 2 2 2 2 2 1 2
3 3 3 3 3 3 4 4 4 4 5 6 6 7 8 8 9 10 10 9 8 7 7 8 7 7 7 8 8 8 8 8 7 8 11 14 15 14 14 13 11 10 8 7 7 6 7 7 7 6 5 4 4 4 3 2 2 2 2 2 2 2 2
3 3 3 3 4 4 4 4 5 5 6 6 7 8 9 9 9 9 8 7 7 7 7 7 7 7 8 8 8 8 8 8 9 11 15 16 15 14 14 12 11 10 8 7 7 7 7 7 7 7 6 5 4 4 3 3 2 2 2 2 2 2 2
3 3 4 4 4 4 5 5 5 6 7 7 8 9 9 8 8 7 7 7 7 7 7 7 7 8 8 8 9 8 8 10 12 15 17 16 15 15 14 12 11 9 8 8 7 7 7 7 8 8 6 5 4 4 3 3 2 2 2 2 2 2 2
3 4 4 4 4 4 5 6 6 7 7 7 8 8 7 7 7 6 7 7 7 7 7 7 7 8 8 9 9 9 10 14 16 18 17 16 16 15 13 12 11 9 8 8 8 8 8 8 8 8 7 5 4 4 3 3 2 2 2 2 2 2 2
4 4 4 4 5 4 5 6 6 6 7 6 6 6 6 6 7 7 7 7 7 7 7 7 8 9 9 9 9 11 15 18 19 19 18 17 16 15 13 12 10 9 8 8 8 8 8 8 8 8 7 6 5 4 4 3 3 2 2 2 2 2 2
3 3 3 4 4 4 4 5 5 5 5 5 6 6 6 7 7 7 6 7 7 7 8 8 8 9 9 10 12 16 19 20 20 19 19 17 16 15 13 11 10 9 8 8 8 9 9 8 8 8 7 6 6 4 4 4 3 2 2 2 2 2 2
Wind_Speed
83 83 83 84 85 86 86 85 85 84 81 78 76 76 77 77 75 72 69 67 65 63 63 64 65 66 66 66 67 67 65 64 63 61 59 58 61 64 65 64 62 59 61 68 70 65 63 61 59 60 60 58 60 60 55 52 53 53 52 48 45 48 52
83 82 83 83 84 85 85 85 84 83 82 81 78 75 74 74 74 72 69 66 63 61 60 60 62 63 63 63 65 66 64 62 61 59 57 59 61 63 64 64 60 58 58 62 67 64 60 59 59 58 59 57 58 58 55 52 52 52 50 47 44 47 50
82 82 82 82 82 83 84 83 82 82 82 81 79 75 72 72 73 72 69 65 61 59 57 57 59 60 60 60 63 64 63 60 59 57 57 59 62 62 63 62 58 57 57 57 62 63 57 57 59 59 58 57 56 56 53 51 51 50 49 45 43 46 49
80 80 81 81 81 80 81 81 81 80 81 81 80 76 71 70 71 71 68 64 60 57 56 55 56 58 57 58 61 62 61 59 56 56 57 59 62 62 62 61 57 57 55 54 58 60 56 55 58 59 58 56 56 55 51 49 50 50 48 45 43 45 48
79 79 79 79 79 78 79 79 79 79 79 80 79 76 72 70 69 69 67 64 60 57 55 54 54 55 55 57 60 61 59 57 55 56 58 60 61 62 60 59 57 56 54 54 55 56 55 54 56 58 58 56 55 54 49 47 49 49 47 45 43 44 46
77 78 77 76 75 75 76 77 77 78 78 78 77 76 73 70 68 68 66 63 60 57 54 52 52 53 54 56 60 61 57 55 55 56 59 60 61 61 60 58 57 56 54 54 53 52 52 53 54 56 57 56 54 53 49 46 48 49 46 45 45 43 44
76 75 74 73 72 72 73 73 75 76 77 76 76 75 73 70 67 66 65 63 60 56 53 51 51 52 53 55 59 60 56 55 56 58 59 60 61 61 59 57 57 56 53 53 53 51 50 51 53 54 56 56 54 51 48 44 46 49 45 44 45 43 42
75 72 71 70 69 69 70 71 73 75 75 74 74 73 71 69 66 65 64 62 59 56 52 50 50 51 53 56 58 58 56 56 57 59 60 60 60 59 58 57 56 55 54 53 52 51 49 50 52 53 53 54 52 50 46 41 43 48 46 43 44 42 41
73 71 69 68 67 66 68 70 72 73 73 72 72 71 70 68 65 63 62 61 58 55 52 49 49 51 53 56 57 56 56 57 58 59 60 60 59 58 56 56 55 54 53 52 51 50 48 48 51 51 51 52 50 47 44 39 41 47 47 45 44 41 39
71 70 69 67 65 64 65 68 70 71 72 71 69 69 68 66 63 61 60 60 57 54 51 49 50 53 55 55 56 55 55 56 58 58 59 59 58 56 55 55 54 54 53 51 51 51 49 48 50 49 48 49 49 45 41 38 40 45 46 46 44 41 37
70 69 68 66 64 63 63 65 68 70 71 70 68 66 66 65 62 59 58 57 56 54 50 49 51 55 55 54 54 55 55 56 57 58 58 58 56 54 53 53 52 53 53 51 51 52 50 48 49 49 47 47 47 44 40 37 39 44 46 44 43 41 37
68 68 67 64 63 62 60 61 65 68 69 69 66 64 64 64 60 57 56 56 54 52 49 50 54 55 54 53 54 54 55 56 56 57 58 56 54 53 52 50 49 51 51 50 50 52 51 48 48 49 48 46 45 43 39 37 38 41 45 44 41 40 37
66 65 64 63 61 60 60 60 63 66 67 67 64 62 62 61 58 55 55 54 52 49 49 52 55 54 53 53 53 53 54 55 56 57 56 54 52 52 50 48 47 48 47 47 48 50 51 49 47 48 48 46 44 42 39 38 37 39 43 43 40 38 37
62 62 62 61 60 59 59 60 62 63 64 62 60 59 59 57 55 54 53 51 49 49 51 54 54 53 53 53 52 52 52 53 55 56 54 51 51 50 48 46 46 46 45 45 46 48 49 49 46 46 47 46 45 43 40 39 38 38 41 41 39 37 36
59 60 59 58 57 58 59 60 60 59 58 57 56 55 55 54 53 53 51 49 48 50 52 53 53 53 53 52 51 50 50 52 55 55 52 50 50 49 46 44 44 44 44 44 45 46 47 48 46 44 44 45 44 44 41 39 38 38 40 40 38 36 35
56 57 56 55 55 57 58 57 55 53 53 53 52 52 52 52 52 50 48 46 48 50 51 51 52 53 52 50 49 48 49 52 54 52 49 50 50 48 45 43 42 42 42 43 44 45 45 46 46 43 42 42 43 43 41 39 38 37 38 39 37 35 34
53 54 53 52 53 55 56 53 50 50 49 49 49 49 49 49 50 48 45 45 47 49 49 51 52 51 49 49 47 46 49 52 52 49 48 49 49 47 44 42 41 40 41 41 42 43 44 45 44 43 42 41 41 41 39 38 36 35 36 37 36 34 32
50 50 49 49 50 51 50 48 46 46 46 45 45 46 46 47 47 46 44 44 46 47 48 50 50 49 48 46 45 46 49 51 48 46 47 48 49 47 43 41 40 40 40 39 39 40 42 42 42 42 42 41 41 40 37 34 34 33 33 34 35 34 32
47 46 46 46 46 45 44 43 43 42 42 42 43 43 44 45 45 44 42 42 44 46 48 48 48 47 45 44 44 46 49 48 45 44 46 47 47 46 43 41 40 40 39 38 37 38 39 39 40 41 42 41 41 40 36 31 30 31 31 31 32 34 32
43 44 43 42 41 40 40 41 40 40 40 41 40 41 42 43 43 42 41 41 43 45 46 47 46 43 42 43 45 47 46 44 42 43 45 45 45 44 43 41 40 39 38 37 37 37 37 37 37 39 40 40 40 39 35 30 29 29 29 29 30 33 33
39 40 40 38 37 38 39 39 39 39 39 40 39 40 41 41 40 39 39 41 43 44 45 45 42 39 39 43 45 46 43 40 40 42 44 44 43 43 42 41 39 38 36 36 37 36 36 37 37 37 38 38 37 37 34 30 28 29 29 28 29 31 33
36 36 35 34 34 36 37 37 37 37 38 38 39 39 40 39 38 37 38 40 41 42 43 41 38 36 39 43 45 43 41 39 39 42 42 42 42 41 41 40 38 36 35 35 35 36 36 37 37 36 36 35 35 36 34 30 28 28 28 27 27 30 32
32 31 30 30 31 32 33 33 33 33 35 37 38 38 38 37 37 36 37 38 39 40 39 36 34 36 39 42 42 40 38 38 39 40 40 40 41 40 39 38 36 35 35 34 34 35 35 36 37 36 34 33 33 34 34 31 28 28 28 27 26 29 31
27 26 26 26 27 28 28 29 29 30 32 34 35 36 35 35 35 34 35 36 36 35 34 32 33 36 40 41 40 37 37 38 39 39 39 39 39 38 37 35 34 34 34 33 33 34 34 35 36 36 33 31 31 32 33 31 28 26 26 26 25 27 30
22 21 21 21 22 23 24 26 27 27 29 31 32 32 32 32 32 31 31 31 31 30 31 31 33 37 39 38 36 35 36 37 38 38 38 38 38 37 35 33 33 33 32 32 32 32 33 33 34 35 33 31 30 31 32 31 29 26 25 24 24 26 28
18 16 16 16 18 20 21 23 24 25 26 27 28 28 28 28 28 27 25 26 27 28 30 31 34 37 37 35 34 34 35 36 37 37 37 37 36 35 33 32 32 32 31 31 31 31 31 32 32 33 32 31 30 31 31 30 29 26 24 23 23 24 27
14 12 12 13 15 17 18 19 20 21 23 24 24 24 23 23 24 22 21 22 26 29 30 32 35 35 33 32 32 33 34 35 36 36 37 36 34 32 31 32 31 30 30 29 29 29 30 30 30 30 30 30 29 29 29 29 28 26 24 22 22 23 25
11 9 10 11 13 14 14 15 16 18 20 21 20 19 19 19 20 20 19 21 26 30 31 32 33 32 30 30 31 32 33 34 35 35 35 34 32 31 31 31 30 29 28 28 28 28 28 29 29 28 28 28 27 27 27 27 27 26 23 21 21 22 24
9 8 9 9 11 11 11 12 14 15 16 16 15 15 15 16 18 19 20 22 27 31 31 30 30 29 29 29 30 31 32 33 34 34 33 31 30 30 30 30 28 27 27 27 27 27 27 27 28 27 26 26 26 26 26 25 25 25 22 21 20 21 22
7 7 7 8 8 9 10 11 12 12 12 12 13 13 14 16 18 20 22 25 28 30 29 28 28 28 28 28 29 30 31 32 32 32 31 29 29 29 29 28 27 26 26 26 25 25 25 25 26 26 26 25 24 24 24 24 24 23 22 20 20 20 21
6 6 6 7 7 8 9 10 10 10 11 11 12 13 15 17 19 22 25 27 28 27 26 26 26 27 27 27 28 30 31 31 31 30 28 28 28 28 27 26 25 25 25 25 24 24 23 23 25 26 25 24 23 23 23 23 23 22 21 20 19 19 20
6 6 6 7 8 9 9 10 10 10 11 12 13 15 17 20 22 24 26 26 24 24 24 25 25 25 26 27 28 29 30 29 28 27 27 27 27 27 26 25 24 24 24 24 23 23 22 22 23 25 25 24 23 22 22 22 22 21 21 19 18 18 20
7 8 8 9 10 11 11 11 12 13 14 15 16 18 20 22 24 24 24 23 22 23 24 24 24 24 25 26 27 28 28 27 26 26 26 26 26 25 24 23 23 22 23 23 22 22 22 21 22 24 25 24 22 20 20 21 21 21 20 19 17 18 19
10 10 11 13 13 14 14 14 15 15 16 17 19 20 22 22 22 21 20 21 22 22 22 22 22 23 24 25 26 26 26 25 25 25 25 25 25 24 23 22 22 22 22 22 21 21 21 21 21 22 24 24 22 20 19 20 21 20 20 18 17 17 19
12 13 14 15 16 16 16 16 17 17 18 19 19 19 19 19 18 19 19 20 20 20 20 21 21 22 24 25 25 25 24 24 24 25 25 24 24 23 22 21 21 21 21 21 21 21 20 21 21 21 22 23 22 20 19 20 20 20 19 18 17 17 18
13 13 14 15 15 15 16 16 16 17 17 16 16 16 16 16 17 18 18 18 18 19 19 20 21 22 23 23 23 23 23 23 24 24 24 24 23 22 21 20 20 20 20 20 20 20 20 21 21 21 21 21 21 20 19 19 19 19 19 18 17 17 18
Wind_Direction
269 268 268 268 268 268 268 269 270 271 271 270 269 269 272 274 277 278 279 279 279 279 280 280 280 280 281 281 282 282 282 282 283 284 286 287 287 286 286 285 286 287 286 286 286 286 286 286 285 284 284 283 283 282 282 280 276 273 270 267 264 260 258
268 268 267 267 267 268 268 268 269 270 271 271 270 270 271 273 276 278 279 279 280 280 280 280 280 280 280 281 281 281 281 282 283 285 287 288 287 287 287 286 287 287 286 287 288 287 287 286 285 284 283 283 282 282 282 280 277 273 271 267 265 262 259
268 267 267 267 267 267 267 268 268 269 270 271 272 271 271 273 275 277 279 280 280 280 281 280 280 279 280 281 281 281 282 283 285 287 288 288 288 288 287 287 288 287 286 287 288 288 288 287 286 285 283 283 283 282 282 281 277 274 271 269 266 263 260
267 267 266 266 266 266 266 267 267 268 269 270 271 272 272 273 274 276 278 280 281 281 281 281 280 279 280 281 281 281 282 284 286 288 289 288 288 288 288 289 290 288 287 288 287 288 288 288 287 286 285 284 284 283 282 281 278 274 272 269 266 263 260
267 267 266 265 265 265 265 265 266 266 267 269 271 272 273 273 274 276 278 280 280 281 281 281 280 280 281 281 281 282 284 286 289 290 289 289 290 290 290 291 291 289 289 288 287 287 288 288 286 286 285 284 284 283 282 280 277 274 273 270 266 262 258
268 267 267 266 265 264 264 264 264 265 266 267 269 271 272 273 274 275 277 279 280 281 281 281 280 281 281 281 282 283 285 288 290 291 290 291 291 291 292 293 291 290 290 289 287 287 288 287 286 285 285 284 284 283 282 280 277 274 272 271 268 261 255
269 267 267 266 265 264 263 263 263 264 265 266 268 270 272 273 274 275 276 278 280 281 281 281 281 281 281 281 282 283 287 290 291 291 291 291 291 292 293 293 292 291 291 289 288 287 287 286 285 284 284 284 284 283 281 280 278 275 272 270 268 262 254
270 268 267 266 264 262 261 261 261 263 264 266 267 269 271 272 273 274 275 277 279 280 280 281 281 281 281 280 281 284 288 291 291 291 291 291 291 292 293 293 292 292 291 290 289 287 286 285 284 283 283 283 283 282 280 278 277 276 273 269 266 260 254
270 269 267 266 263 261 259 260 261 262 263 265 266 268 269 271 272 273 275 277 278 279 280 281 282 281 280 280 281 285 288 290 290 291 291 290 291 293 293 292 292 292 291 290 289 287 285 285 283 282 283 282 282 281 279 277 275 274 273 270 265 258 252
270 269 268 267 265 262 259 259 261 262 263 264 265 267 268 270 271 272 274 275 277 279 280 281 282 280 279 280 282 285 288 289 289 290 290 290 292 293 293 293 293 293 291 291 290 288 286 285 284 283 283 283 282 281 279 278 276 274 271 269 265 257 249
270 269 269 268 267 264 261 260 261 262 264 265 265 266 268 269 271 272 273 275 276 277 279 281 281 279 279 281 283 286 287 288 289 290 290 290 292 293 292 293 294 294 293 293 292 290 288 288 287 286 285 284 283 282 280 279 276 274 271 267 263 257 249
270 270 270 269 268 267 264 261 260 261 263 264 265 266 267 268 270 271 272 274 275 277 279 280 277 277 279 282 283 286 288 288 289 290 289 291 293 292 291 292 292 291 291 293 292 291 289 289 289 288 286 285 284 283 283 280 275 272 270 266 261 257 250
269 270 270 270 269 267 265 262 260 260 262 263 265 265 266 268 270 271 271 272 274 276 278 276 275 277 280 281 283 286 288 289 290 289 289 292 293 291 290 292 290 289 290 291 291 289 289 289 289 288 287 287 287 286 285 282 276 270 268 266 261 256 250
269 269 270 270 269 268 266 263 261 261 262 263 264 264 265 267 269 270 270 271 274 275 274 273 275 277 279 281 284 286 288 289 289 288 290 293 292 289 290 291 289 289 290 290 288 287 287 288 288 287 287 288 288 287 286 283 278 270 266 265 261 256 250
269 270 270 270 269 268 267 265 263 263 263 264 264 265 265 267 268 268 269 271 272 272 272 273 276 277 279 282 285 287 289 289 288 289 292 293 290 289 290 290 289 290 291 290 287 286 286 286 286 285 285 286 286 286 285 282 278 271 267 264 261 257 252
270 270 270 270 269 268 266 266 266 266 265 265 265 265 265 266 266 267 268 269 270 270 272 274 275 277 279 283 286 288 289 288 287 291 293 292 289 290 291 290 290 291 291 289 287 286 286 285 285 284 284 285 285 284 283 279 274 270 267 265 262 257 253
271 271 271 270 268 267 267 269 269 268 266 265 265 264 264 264 265 266 267 267 268 270 272 274 275 277 281 283 287 288 287 286 288 292 293 291 290 290 290 290 291 291 289 286 286 286 285 285 286 286 286 285 284 283 281 277 271 266 264 264 263 258 253
272 272 272 270 269 269 271 271 269 268 266 265 264 264 263 263 264 265 266 267 268 270 272 274 276 279 282 285 287 287 285 286 290 293 292 290 290 291 290 291 292 290 286 284 284 284 284 285 286 287 287 287 285 283 280 275 270 266 263 262 262 260 254
275 275 274 273 273 274 274 272 270 268 267 265 263 263 262 262 263 264 266 267 268 270 272 274 276 280 283 285 286 284 284 287 292 292 290 289 290 291 291 292 292 290 287 284 283 283 283 284 286 287 287 287 285 284 282 276 271 268 265 263 262 260 255
277 277 276 277 279 279 276 274 272 269 266 264 262 261 261 261 262 263 266 267 268 270 272 274 277 281 284 285 284 283 285 290 293 290 288 289 290 290 291 292 292 290 288 288 286 285 284 284 285 285 285 285 284 284 283 280 276 272 268 265 261 258 254
277 278 279 281 282 280 278 275 272 268 265 263 262 260 261 261 262 264 265 267 268 270 272 275 278 282 284 283 283 284 288 291 291 288 287 289 289 289 291 292 292 291 291 291 289 288 288 287 286 286 285 285 286 285 284 283 280 276 271 267 261 256 252
278 279 281 283 282 279 277 274 271 268 265 263 261 260 260 262 263 264 265 266 268 270 273 276 280 282 282 281 282 286 290 291 288 286 287 288 288 289 290 291 292 293 293 292 291 291 290 289 287 286 285 286 287 287 286 285 281 277 273 268 261 255 250
279 281 283 283 281 277 274 272 270 267 264 262 261 260 261 262 263 263 264 266 268 270 273 277 281 281 280 280 283 288 290 289 286 286 286 286 287 288 290 290 293 295 294 293 292 291 290 289 287 286 285 285 287 287 287 285 281 277 273 268 261 253 248
281 282 283 283 281 277 274 272 270 267 264 262 261 260 261 261 262 262 263 265 268 271 274 278 279 279 278 281 285 288 288 286 285 285 285 285 286 288 289 291 294 295 294 293 291 290 289 288 288 287 286 285 288 288 287 285 281 277 273 267 260 252 247
280 282 283 284 283 279 276 272 269 267 264 262 260 260 259 260 261 262 263 266 269 272 275 276 276 276 278 282 286 287 285 284 284 284 284 285 286 287 289 292 294 294 293 291 290 289 289 287 287 288 288 288 290 289 288 286 282 278 273 267 260 252 246
279 281 283 286 285 280 275 270 268 267 265 262 260 260 259 260 261 263 265 267 270 272 273 273 274 275 279 283 285 284 283 283 284 283 283 284 285 287 290 293 294 293 292 291 290 290 289 287 287 288 289 290 290 288 286 284 282 279 275 269 261 252 246
275 278 282 285 282 276 271 268 267 266 263 261 260 260 260 261 262 263 265 267 268 269 270 271 272 276 280 283 282 281 282 282 282 282 282 284 285 289 292 294 293 293 292 292 293 292 289 287 286 286 287 288 288 286 284 282 281 279 276 270 262 254 246
270 272 276 276 273 268 265 262 261 260 259 259 260 260 261 262 263 263 262 264 266 267 268 270 274 278 281 280 279 280 280 280 280 280 281 283 286 290 293 293 293 292 292 294 294 292 289 287 285 285 286 287 288 286 283 281 280 278 276 270 263 255 247
270 270 270 269 264 259 255 252 251 251 253 256 259 260 261 260 260 261 261 261 263 265 269 273 277 279 279 277 278 279 278 277 278 279 281 284 288 291 293 292 293 294 294 295 295 293 291 290 289 288 288 288 290 288 285 282 279 278 276 270 263 256 247
275 273 269 261 254 248 244 243 242 243 246 251 255 257 258 256 257 259 260 259 262 266 272 276 277 276 276 276 277 276 275 275 277 278 281 286 289 291 292 292 293 295 296 296 295 293 292 292 292 292 291 290 291 290 287 284 280 277 275 270 262 256 248
263 262 256 245 237 231 229 230 231 233 238 244 248 251 254 254 255 256 257 259 264 270 274 275 274 273 274 275 274 273 273 274 276 279 283 286 289 291 293 293 295 296 297 297 295 293 293 294 295 294 293 292 292 290 288 285 280 276 274 269 262 254 247
231 233 229 224 218 215 214 215 217 222 230 237 241 246 250 251 252 254 257 263 269 273 272 271 270 271 272 272 271 271 272 274 277 280 284 287 290 292 293 294 296 297 298 297 296 295 295 297 297 296 294 292 291 290 288 285 281 276 273 269 261 253 246
211 211 209 208 207 205 206 208 213 222 229 234 239 243 247 250 252 256 262 268 270 268 267 267 268 269 268 268 268 270 272 275 278 282 285 288 291 293 294 296 297 298 299 298 297 297 298 299 299 298 296 293 291 290 288 285 281 276 272 268 260 251 244
202 202 201 201 203 203 206 212 218 225 230 234 238 243 247 252 258 263 266 265 263 263 264 265 266 266 265 266 267 269 272 276 280 283 287 291 293 295 297 298 299 300 299 299 298 298 299 299 299 298 297 296 294 292 289 286 281 276 271 267 259 249 242
208 207 206 207 209 211 213 217 222 227 232 237 243 248 254 259 262 262 261 259 260 261 263 263 263 263 263 265 267 270 274 278 282 286 290 294 296 297 299 300 301 301 301 300 300 300 300 300 299 296 296 296 295 294 292 287 282 276 271 265 259 249 240
225 224 222 222 223 224 225 227 230 235 241 247 252 255 258 258 258 257 257 258 260 261 261 261 261 261 263 265 269 272 276 280 286 290 294 297 299 300 301 302 303 303 302 301 301 301 302 301 300 299 298 297 296 295 293 288 283 277 270 264 258 249 239